ASTRA 5B

Last updated on Nov. 18, 2019, 4:21 a.m. UTC

1 39617U 14011B   19321.72050191  .00000161  00000-0  00000+0 0  9991
2 39617   0.0493 307.8406 0003710 293.2946 106.2825  1.00271401 20774
UTC
Height (km)
Latitude
Longitude
Inclination
Orbital Period
UTC large
Height (km)
Speed (km/s)
/
Latitude / Longitude
Inclination (degrees)
Orbital Period (minutes)
Azimuth
Elevation
Range (km)
Doppler Factor
iOS Compass Heading
iOS Angle

Next 30 passes for location: Hong Kong

Rise time Rise Azimuth (degrees) Set time Set Azimuth (degrees) Duration Max altitude (degrees)

No matching passes for this satellites